GW2918 Weather Reports


time (UTC)temp
F
wind
direction
speed
knots
gust
knots
rain 1hr
in
rain 24hr
in
rain mn
in
humidity
%
barometer
mb
20260902230457 71 166 1.7 5.2 0.00 0.07 0.07 97 1017.8
20260902225457 71 194 2.6 3.5 0.00 0.07 0.07 97 1018.0
20260902224456 72 201 5.2 9.6 0.00 0.07 0.07 96 1018.4
20260902223454 72 210 7.0 7.0 0.00 0.07 0.07 96 1018.1
20260902222452 72 197 1.7 4.3 0.00 0.07 0.07 96 1018.3
20260902221451 72 209 5.2 7.8 0.00 0.07 0.07 95 1018.4
20260902220447 72 180 1.7 7.8 0.00 0.07 0.07 95 1018.6
20260902215444 72 222 3.5 5.2 0.00 0.07 0.07 94 1018.7
20260902214438 72 171 1.7 7.0 0.00 0.07 0.07 94 1018.8
20260902213435 73 201 1.7 7.0 0.00 0.07 0.07 94 1019.1
20260902212429 73 208 6.1 7.0 0.00 0.07 0.07 92 1019.1
20260902211427 73 211 2.6 5.2 0.00 0.07 0.07 92 1019.0
20260902210422 73 197 1.7 5.2 0.00 0.07 0.07 92 1019.2
20260902205421 74 205 5.2 7.8 0.00 0.07 0.07 90 1019.0
20260902204417 74 189 1.7 7.0 0.00 0.07 0.07 93 1018.8
20260902203413 73 181 2.6 9.6 0.00 0.07 0.07 94 1018.9
20260902202408 73 179 1.7 3.5 0.00 0.07 0.07 94 1019.2
20260902201405 72 216 6.1 9.6 0.00 0.07 0.07 97 1019.3
20260902200401 71 209 6.1 6.1 0.00 0.07 0.07 97 1019.3
20260902195355 71 174 1.7 3.5 0.00 0.07 0.07 98 1019.1
20260902194356 71 178 1.7 3.5 0.00 0.07 0.07 98 1019.5
20260902193353 71 198 2.6 5.2 0.00 0.07 0.07 99 1019.9
20260902192350 71 223 3.5 7.8 0.00 0.07 0.07 99 1020.0
20260902191346 71 209 4.3 5.2 0.00 0.07 0.07 99 1019.9
20260902190347 72 182 0.9 4.3 0.00 0.07 0.07 99 1019.6
20260902185344 71 207 4.3 6.1 0.00 0.07 0.07 99 1019.8
20260902184340 71 208 2.6 5.2 0.00 0.07 0.07 99 1020.1
20260902183338 72 215 7.0 7.8 0.00 0.07 0.07 98 1020.0
20260902182336 71 207 0.9 3.5 0.00 0.07 0.07 99 1020.0
20260902181333 71 181 1.7 3.5 0.00 0.07 0.07 99 1019.8
20260902180329 70 209 1.7 5.2 0.00 0.07 0.07 99 1019.8
20260902175325 70 185 1.7 3.5 0.00 0.07 0.07 99 1019.8
20260902174323 69 148 1.7 4.3 0.00 0.07 0.07 99 1020.3
20260902173318 69 207 4.3 6.1 0.00 0.07 0.07 99 1020.5
20260902172318 69 218 4.3 13.0 0.00 0.07 0.07 99 1020.4
20260902171314 69 176 1.7 3.5 0.00 0.07 0.07 99 1020.7
20260902170312 69 211 5.2 7.8 0.00 0.07 0.07 99 1020.7
20260902165309 69 196 1.7 5.2 0.00 0.07 0.07 99 1020.8
20260902164302 70 191 4.3 9.6 0.00 0.07 0.07 99 1020.9
20260902163256 70 180 0.0 5.2 0.00 0.07 0.07 99 1020.8
20260902162256 70 221 7.8 8.7 0.00 0.07 0.07 99 1020.6
20260902161252 69 218 4.3 7.8 0.00 0.07 0.07 99 1020.7
20260902160248 69 209 3.5 6.1 0.00 0.07 0.07 99 1020.4
20260902155245 69 220 5.2 5.2 0.00 0.07 0.07 99 1020.5
20260902154242 69 205 1.7 4.3 0.00 0.07 0.07 99 1020.6
20260902153241 69 196 2.6 7.8 0.00 0.07 0.07 99 1020.5
20260902152238 69 173 1.7 4.3 0.00 0.07 0.07 99 1020.4
20260902151234 69 206 3.5 7.0 0.05 0.07 0.07 99 1020.4
20260902150231 68 207 5.2 7.0 0.12 0.06 0.06 99 1020.9
20260902145230 68 174 0.9 5.2 0.07 0.04 0.04 99 1020.6
20260902144228 68 202 2.6 6.1 0.05 0.03 0.03 99 1020.6
20260902143224 68 152 0.9 5.2 0.02 0.02 0.02 99 1020.7
20260902142221 68 201 2.6 4.3 0.05 0.02 0.02 99 1020.6
20260902141217 68 180 0.9 1.7 0.00 0.01 0.01 99 1020.9
20260902140212 68 157 0.0 2.6 0.02 0.01 0.01 99 1020.9
20260902135207 68 206 2.6 3.5 0.00 0.00 0.00 99 1021.5
20260902134201 68 240 6.1 7.0 0.00 0.00 0.00 99 1021.3
20260902133156 68 204 4.3 6.1 0.00 0.00 0.00 99 1020.7
20260902132153 68 192 0.0 5.2 0.00 0.00 0.00 99 1020.8
20260902131150 68 165 1.7 4.3 0.00 0.00 0.00 99 1020.8
20260902130147 68 163 1.7 7.0 0.00 0.00 0.00 99 1020.7
20260902125143 68 206 1.7 5.2 0.00 0.00 0.00 99 1020.6
20260902124140 68 210 4.3 7.8 0.00 0.00 0.00 99 1020.5
20260902123136 68 209 1.7 5.2 0.00 0.00 0.00 99 1020.5
20260902122132 68 190 0.9 7.0 0.00 0.00 0.00 99 1020.0
20260902121127 67 170 1.7 6.1 0.00 0.00 0.00 99 1020.0
20260902120126 67 203 3.5 5.2 0.00 0.00 0.00 99 1019.8
20260902115122 67 205 1.7 3.5 0.00 0.00 0.00 99 1019.3
20260902114117 66 168 0.9 3.5 0.00 0.00 0.00 99 1019.5
20260902113113 66 177 1.7 2.6 0.00 0.00 0.00 99 1019.7
20260902112112 65 197 0.0 3.5 0.00 0.00 0.00 99 1020.0
20260902111108 65 203 3.5 3.5 0.00 0.00 0.00 99 1019.6
20260902110107 64 221 1.7 3.5 0.00 0.00 0.00 99 1019.7
20260902105106 65 160 0.0 1.7 0.00 0.00 0.00 99 1019.7
20260902104102 65 171 2.6 3.5 0.00 0.00 0.00 99 1019.7
20260902103058 65 153 1.7 3.5 0.00 0.00 0.00 99 1019.7
20260902102057 65 156 0.9 1.7 0.00 0.00 0.00 99 1019.8
20260902101056 65 198 0.9 1.7 0.00 0.00 0.00 99 1020.1
20260902100052 65 203 1.7 2.6 0.00 0.00 0.00 99 1020.1
20260902095050 65 162 0.0 4.3 0.00 0.00 0.00 99 1019.9
20260902094048 65 148 0.0 3.5 0.00 0.00 0.00 99 1019.8
20260902093042 64 197 4.3 5.2 0.00 0.00 0.00 99 1019.7
20260902092038 64 176 0.9 2.6 0.00 0.00 0.00 99 1019.9
20260902091035 64 135 0.0 1.7 0.00 0.00 0.00 99 1019.7
20260902090030 64 118 1.7 1.7 0.00 0.00 0.00 99 1019.8
20260902085025 64 189 0.0 2.6 0.00 0.00 0.00 99 1019.8
20260902084023 64 236 0.9 3.5 0.00 0.00 0.00 99 1019.6
20260902083018 65 211 2.6 2.6 0.00 0.00 0.00 99 1019.6
20260902082016 65 193 0.9 4.3 0.00 0.00 0.00 99 1019.8
20260902081012 65 155 0.0 2.6 0.00 0.00 0.00 99 1019.4
20260902080010 64 166 1.7 1.7 0.00 0.00 0.00 99 1019.6
20260902075006 65 206 1.7 2.6 0.00 0.00 0.00 99 1019.4
20260902074006 64 203 0.0 1.7 0.00 0.00 0.00 99 1019.3
20260902073005 64 140 0.9 1.7 0.00 0.00 0.00 99 1019.2
20260902072003 64 170 0.0 0.9 0.00 0.00 0.00 99 1019.4
20260902070958 65 195 1.7 2.6 0.00 0.00 0.00 99 1019.5
20260902065958 65 205 0.0 2.6 0.00 0.00 0.00 99 1019.6
20260902064954 64 242 0.9 2.6 0.00 0.00 0.00 99 1019.5
20260902063952 65 228 1.7 2.6 0.02 0.00 0.00 99 1019.7
20260902062947 65 177 0.0 1.7 0.00 0.00 0.00 99 1019.8
20260902061946 66 225 0.0 2.6 0.00 0.00 0.00 99 1019.6
20260902060943 65 197 0.0 1.7 0.00 0.00 0.00 99 1019.7
20260902055941 65 189 0.0 1.7 0.00 0.00 0.00 99 1019.7
20260902054938 65 180 0.0 2.6 0.00 0.00 0.00 99 1019.7
20260902053934 65 211 0.0 2.6 0.00 0.00 0.00 99 1019.7
20260902052928 66 190 0.9 1.7 0.00 0.00 0.00 99 1019.7
20260902051924 65 106 0.0 1.7 0.00 0.00 0.00 99 1019.7
20260902050923 65 156 1.7 1.7 0.00 0.00 0.00 99 1019.9
20260902045918 66 194 1.7 2.6 0.00 0.00 0.00 99 1019.8
20260902044916 66 166 0.0 1.7 0.00 0.00 0.00 99 1019.6
20260902043912 66 141 0.0 0.0 0.00 0.00 0.00 99 1019.6
20260902042908 66 128 0.9 1.7 0.00 0.00 0.00 99 1019.7
20260902041903 66 215 1.7 2.6 0.00 0.00 0.00 99 1019.5
20260902040902 66 246 0.9 1.7 0.00 0.00 0.00 99 1019.7
20260902035856 66 217 1.7 2.6 0.00 0.18 0.18 99 1019.6
20260902034850 66 346 0.0 0.9 0.00 0.18 0.18 99 1019.4
20260902033850 66 152 0.0 1.7 0.00 0.18 0.18 99 1019.3
20260902032844 67 209 0.0 1.7 0.00 0.18 0.18 99 1019.2
20260902031844 67 269 0.0 1.7 0.00 0.18 0.18 99 1019.2
20260902030842 67 206 0.0 1.7 0.00 0.18 0.18 99 1019.3
20260902025841 66 211 1.7 2.6 0.00 0.18 0.18 99 1019.2
20260902024837 66 217 0.0 1.7 0.00 0.18 0.18 99 1019.0
20260902023834 67 170 0.0 1.7 0.00 0.18 0.18 99 1018.9
20260902022834 67 163 0.0 1.7 0.00 0.18 0.18 99 1018.6
20260902021832 67 144 0.0 1.7 0.00 0.18 0.18 99 1018.8
20260902020828 67 104 0.0 1.7 0.00 0.18 0.18 99 1018.6
20260902015825 67 153 0.9 0.9 0.00 0.18 0.18 99 1018.8
20260902014822 67 132 1.7 1.7 0.00 0.18 0.18 99 1019.0
20260902013817 67 178 0.0 1.7 0.00 0.18 0.18 99 1018.7
20260902012814 68 198 1.7 2.6 0.00 0.18 0.18 99 1018.4
20260902011811 68 177 0.0 0.9 0.00 0.18 0.18 99 1018.3
20260902010810 68 181 0.0 0.9 0.00 0.18 0.18 99 1018.6
20260902005805 69 144 0.9 0.9 0.00 0.18 0.18 99 1018.5
20260902004800 69 262 0.9 1.7 0.00 0.18 0.18 99 1018.5
20260902003756 69 256 0.9 1.7 0.00 0.18 0.18 99 1018.5
20260902002753 69 212 0.0 0.0 0.00 0.18 0.18 99 1018.4
20260902001748 69 259 0.9 1.7 0.00 0.18 0.18 99 1017.7
20260902000749 70 147 0.0 1.7 0.00 0.18 0.18 99 1017.6
20260901235744 71 218 0.0 1.7 0.02 0.18 0.18 99 1017.8
20260901234744 72 194 0.0 1.7 0.00 0.18 0.18 99 1017.7
20260901233739 72 25 0.0 3.5 0.07 0.18 0.18 99 1017.3
20260901232736 72 201 1.7 2.6 0.57 0.17 0.17 99 1018.1
20260901231733 74 349 3.5 3.5 0.19 0.06 0.06 92 1018.5